[[{"header":{"parameterUnit":"m.s-1","parameterCategory":1,"la1":30.2991,"la2":30.254,"lo1":-89.0895,"lo2":-89.0444,"dy":0.0017,"dx":0.0017,"nx":28,"ny":28,"refTime":"2024-06-10T03:00:00:Z","depth":0,"parameterNumber":2,"parameterNumberName":"U-component_of_WINDS"},"data":[0,0,0,0,0,0,0,0,0,0,0,0,0,0,0,0,0,0,0,0,0,0,0,0,0,0,0,0,0,0,0,0,0,0,0,0,0,0,0,0,0,0,0,0,0,0,0,0,0,0,0,0,0,0,0,0,0,0,-0.2091,-0.209,0,-0.1971,-0.197,-0.1968,-0.1912,-0.1912,-0.1912,-0.1912,-0.1789,-0.1786,-0.1783,0,0,0,0,0,0,0,0,0,0,0,0,0,-0.2274,-0.2271,-0.2092,-0.209,-0.2089,-0.1971,-0.197,-0.1968,-0.1912,-0.1912,-0.1912,-0.1912,-0.1791,-0.1787,-0.1783,0,0,0,0,0,0,0,0,0,0,0,0,0,-0.2179,-0.227,-0.2092,-0.2046,-0.2041,-0.1972,-0.197,-0.1968,-0.1912,-0.1912,-0.1912,-0.1912,-0.1792,-0.1787,-0.1782,-0.1749,0,0,-0.1767,-0.1765,0,0,0,0,0,0,0,0,-0.2184,-0.2172,-0.2055,-0.2049,-0.2043,-0.1957,-0.1989,-0.1894,-0.1912,-0.1961,-0.1912,-0.1912,-0.1845,-0.1836,-0.1813,-0.1743,-0.1738,-0.1766,-0.1763,-0.1761,-0.176,0,0,0,0,0,0,0,-0.2191,-0.2177,-0.2044,-0.2053,-0.2046,-0.2033,-0.2019,-0.1971,-0.1904,-0.1957,-0.1952,-0.1939,-0.1842,-0.1818,-0.181,-0.1736,-0.1766,-0.1762,-0.1759,-0.1757,-0.1634,-0.1634,0,0,0,0,0,0,-0.2205,-0.2183,-0.2048,-0.204,-0.2116,-0.2029,-0.2014,-0.1984,-0.1904,-0.1892,-0.1939,-0.1937,-0.1826,-0.1815,-0.1805,-0.1761,-0.1761,-0.1756,-0.1754,-0.1634,-0.1634,-0.1634,0,0,0,0,0,0,-0.2209,-0.2193,-0.2053,-0.211,-0.2091,-0.2026,-0.1993,-0.1982,-0.1958,-0.1891,-0.1879,-0.1926,-0.1826,-0.1812,-0.1763,-0.1756,-0.1754,-0.175,-0.1635,-0.1634,-0.1634,-0.1673,0,0,0,0,0,0,-0.2214,-0.2195,-0.2181,-0.211,-0.2088,-0.2012,-0.1993,-0.198,-0.1949,-0.1945,-0.1876,-0.1864,-0.1825,-0.1771,-0.1758,-0.1749,-0.1746,-0.1635,-0.1634,-0.1634,-0.1672,-0.1674,-0.1676,0,0,0,0,0,-0.2221,-0.2197,-0.2181,-0.2165,-0.207,-0.2012,-0.2,-0.1955,-0.1949,-0.1935,-0.1892,-0.1867,-0.1759,-0.1767,-0.1752,-0.1741,-0.1635,-0.1635,-0.1634,-0.1672,-0.1674,-0.1676,0,0,0,0,0,0,-0.2268,-0.2187,-0.2168,-0.212,-0.2074,-0.2003,-0.1983,-0.1959,-0.1913,-0.1911,-0.1857,-0.1842,-0.1799,-0.1765,-0.1775,-0.1705,-0.1695,-0.1691,-0.1729,-0.173,-0.1732,-0.1741,-0.1741,0,0,0,0,0,-0.2273,-0.2233,-0.2164,-0.2128,-0.2106,-0.2049,-0.2022,-0.1992,-0.1941,-0.1922,-0.1875,-0.1828,-0.1783,-0.1755,-0.171,-0.1668,-0.1652,-0.1653,-0.1655,-0.1657,-0.1654,-0.163,-0.163,-0.1632,-0.1632,-0.1632,0,0,-0.2282,-0.2233,-0.2211,-0.2137,-0.2097,-0.2057,-0.2033,-0.1991,-0.1961,-0.1915,-0.1866,-0.1831,-0.1775,-0.1729,-0.1707,-0.17,-0.1651,-0.1656,-0.1658,-0.1654,-0.163,-0.163,-0.163,-0.1631,-0.1632,-0.1632,0,0,-0.2279,-0.2238,-0.2204,-0.2165,-0.2105,-0.2068,-0.206,-0.1993,-0.1968,-0.1919,-0.1884,-0.1848,-0.1772,-0.1734,-0.1704,-0.1689,-0.1664,-0.1676,-0.1686,-0.1663,-0.1663,-0.1662,-0.1658,-0.1656,-0.1674,-0.1674,-0.1674,0,-0.2298,-0.2236,-0.2189,-0.215,-0.2119,-0.2076,-0.2042,-0.2007,-0.1936,-0.1916,-0.1909,-0.1815,-0.1773,-0.1719,-0.1716,-0.1693,-0.1683,-0.1683,-0.1667,-0.1666,-0.1665,-0.1659,-0.1658,-0.1676,-0.1676,-0.1675,-0.1675,0,-0.2263,-0.2221,-0.2201,-0.2134,-0.2101,-0.2064,-0.2013,-0.1985,-0.1958,-0.1922,-0.1873,-0.1822,-0.1767,-0.1752,-0.1725,-0.1694,-0.1692,-0.1677,-0.1665,-0.1667,-0.1661,-0.1659,-0.1678,-0.1678,-0.1677,-0.1677,0,0,-0.2284,-0.2193,-0.2187,-0.2157,-0.2089,-0.2055,-0.2018,-0.1964,-0.1942,-0.1895,-0.1863,-0.1801,-0.1787,-0.1754,-0.1722,-0.1703,-0.1695,-0.169,-0.1688,-0.1693,-0.1659,-0.1671,-0.1669,-0.1679,-0.1678,-0.1678,-0.1664,0,-0.2272,-0.2202,-0.216,-0.2107,-0.2068,-0.2028,-0.1995,-0.1951,-0.1917,-0.1879,-0.1841,-0.1798,-0.1783,-0.1763,-0.1741,-0.17,-0.1687,-0.1701,-0.1648,-0.1647,-0.1663,-0.1666,-0.1678,-0.1667,-0.1661,-0.1661,-0.166,0,-0.2247,-0.2202,-0.2146,-0.2084,-0.2066,-0.2037,-0.1985,-0.195,-0.1899,-0.1876,-0.184,-0.1809,-0.1769,-0.1761,-0.1706,-0.1716,-0.1692,-0.1669,-0.1668,-0.1661,-0.1654,-0.1659,-0.1662,-0.1661,-0.1656,-0.1657,-0.1657,0,-0.2269,-0.2194,-0.2151,-0.2126,-0.2052,-0.2034,-0.2002,-0.1952,-0.1923,-0.1878,-0.1859,-0.181,-0.1784,-0.1747,-0.1704,-0.1703,-0.1653,-0.1642,-0.1633,-0.1634,-0.1624,-0.1625,-0.1624,-0.1609,-0.1609,-0.1609,-0.1609,0,-0.2259,-0.2226,-0.216,-0.2133,-0.2096,-0.2048,-0.2013,-0.1978,-0.1934,-0.1901,-0.1863,-0.1833,-0.1779,-0.1742,-0.1708,-0.1668,-0.1656,-0.1637,-0.1628,-0.164,-0.1642,-0.1623,-0.1623,-0.1609,-0.1609,-0.1609,-0.1609,0,-0.2276,-0.223,-0.2181,-0.2116,-0.2099,-0.2074,-0.2019,-0.1992,-0.1957,-0.1915,-0.1903,-0.1847,-0.1802,-0.1756,-0.1695,-0.1673,-0.1634,-0.1622,-0.1651,-0.1646,-0.164,-0.1641,-0.1626,-0.1622,-0.1611,-0.1611,-0.1611,0,-0.2273,-0.2247,-0.2179,-0.2154,-0.2124,-0.2084,-0.2055,-0.2008,-0.1979,-0.192,-0.1901,-0.1854,-0.1813,-0.1744,-0.1698,-0.1652,-0.1639,-0.1637,-0.1631,-0.1645,-0.1639,-0.1641,-0.1639,-0.1638,-0.1639,-0.1639,-0.1639,0,-0.2272,-0.2251,-0.2209,-0.2161,-0.2127,-0.2086,-0.2044,-0.2026,-0.1971,-0.1941,-0.1895,-0.1863,-0.1802,-0.1756,-0.1705,-0.1673,-0.1647,-0.1641,-0.1637,-0.1648,-0.1666,-0.1657,-0.1656,-0.1642,-0.1641,-0.1641,-0.1641,-0.1641,-0.2278,-0.2254,-0.2203,-0.2159,-0.2123,-0.2085,-0.2057,-0.2018,-0.1979,-0.1925,-0.19,-0.1854,-0.1806,-0.1735,-0.1704,-0.1668,-0.1661,-0.1654,-0.1652,-0.1651,-0.1654,-0.1673,-0.1658,-0.1658,-0.1658,-0.1658,-0.1658,0,-0.2275,-0.2241,-0.2201,-0.2144,-0.211,-0.2089,-0.2042,-0.2015,-0.1975,-0.1932,-0.1893,-0.1841,-0.1796,-0.1748,-0.1701,-0.1682,-0.1669,-0.1671,-0.1672,-0.1665,-0.1663,-0.1672,-0.1682,-0.1682,-0.1682,-0.1682,-0.1682,-0.1682,-0.227,-0.2227,-0.2201,-0.2141,-0.2107,-0.2061,-0.2037,-0.2002,-0.1968,-0.1911,-0.1874,-0.1843,-0.1798,-0.1748,-0.1707,-0.1694,-0.1678,-0.1684,-0.1668,-0.1667,-0.1665,-0.1663,-0.1671,-0.1681,-0.1681,-0.1672,-0.1672,-0.1672]},{"header":{"parameterUnit":"m.s-1","parameterCategory":1,"la1":30.2991,"la2":30.254,"lo1":-89.0895,"lo2":-89.0444,"dy":0.0017,"dx":0.0017,"nx":28,"ny":28,"refTime":"2024-06-10T03:00:00:Z","depth":0,"parameterNumber":3,"parameterNumberName":"V-component_of_WINDS"},"data":[0,0,0,0,0,0,0,0,0,0,0,0,0,0,0,0,0,0,0,0,0,0,0,0,0,0,0,0,0,0,0,0,0,0,0,0,0,0,0,0,0,0,0,0,0,0,0,0,0,0,0,0,0,0,0,0,0,0,1.4633,1.4633,0,1.4691,1.4692,1.4692,1.4675,1.4674,1.4673,1.4672,1.4729,1.4732,1.4734,0,0,0,0,0,0,0,0,0,0,0,0,0,1.4502,1.4505,1.4633,1.4633,1.4634,1.4691,1.4692,1.4693,1.4676,1.4674,1.4673,1.4671,1.4728,1.4731,1.4735,0,0,0,0,0,0,0,0,0,0,0,0,0,1.456,1.4506,1.4632,1.4633,1.4633,1.4691,1.4692,1.4693,1.4676,1.4674,1.4672,1.4671,1.4727,1.4731,1.4735,1.4796,0,0,1.4747,1.4749,0,0,0,0,0,0,0,0,1.4556,1.4564,1.4632,1.4633,1.4633,1.4674,1.4667,1.4727,1.4676,1.466,1.4672,1.467,1.4712,1.4717,1.4732,1.4798,1.4801,1.4747,1.475,1.4752,1.4753,0,0,0,0,0,0,0,1.4552,1.4562,1.4656,1.4633,1.4634,1.4628,1.4634,1.4678,1.4695,1.4661,1.466,1.4667,1.4712,1.4728,1.4733,1.4802,1.4747,1.4751,1.4753,1.4755,1.4916,1.4918,0,0,0,0,0,0,1.4548,1.4559,1.4654,1.4657,1.459,1.4632,1.4639,1.4663,1.4695,1.4698,1.4669,1.4666,1.4722,1.4729,1.4735,1.4805,1.4752,1.4755,1.4758,1.4914,1.4917,1.4919,0,0,0,0,0,0,1.4546,1.4557,1.4651,1.4608,1.4619,1.4636,1.4663,1.4665,1.4681,1.4701,1.4703,1.4682,1.4721,1.473,1.478,1.4807,1.4757,1.4761,1.4912,1.4915,1.4918,1.4947,0,0,0,0,0,0,1.4542,1.4556,1.458,1.4608,1.4622,1.4696,1.4665,1.4667,1.4688,1.4685,1.4714,1.4717,1.472,1.4774,1.4784,1.4811,1.4764,1.491,1.4913,1.4917,1.4943,1.495,1.4956,0,0,0,0,0,1.4537,1.4586,1.4582,1.4593,1.4652,1.4698,1.4705,1.4709,1.4691,1.4714,1.4726,1.4716,1.4803,1.4779,1.479,1.4819,1.4908,1.4912,1.4916,1.494,1.4949,1.4956,0,0,0,0,0,0,1.4561,1.459,1.4585,1.4645,1.4669,1.4695,1.4725,1.4719,1.4748,1.4744,1.4747,1.4754,1.4804,1.4818,1.4791,1.4878,1.4852,1.4859,1.4867,1.4875,1.4881,1.4875,1.4767,0,0,0,0,0,1.4573,1.4608,1.4632,1.4683,1.4695,1.4708,1.4728,1.4729,1.4754,1.4763,1.4779,1.4803,1.4835,1.4856,1.4888,1.4946,1.495,1.4971,1.4978,1.4983,1.4987,1.5016,1.5024,1.4933,1.4933,1.4933,0,0,1.4598,1.4619,1.4641,1.4688,1.4706,1.4741,1.4717,1.4755,1.478,1.4769,1.4817,1.4829,1.4856,1.4909,1.4934,1.4921,1.5014,1.4988,1.4992,1.4994,1.5021,1.5029,1.5037,1.4936,1.4935,1.4935,0,0,1.4661,1.4682,1.4724,1.4743,1.4772,1.478,1.4791,1.4817,1.4825,1.4873,1.4864,1.4894,1.4951,1.4969,1.4985,1.5054,1.5044,1.5064,1.5096,1.5123,1.5131,1.5137,1.5158,1.5166,1.5069,1.5069,1.507,0,1.4688,1.4742,1.4747,1.4785,1.4805,1.4797,1.4838,1.4857,1.4894,1.4907,1.4893,1.4962,1.498,1.5035,1.5052,1.5067,1.5076,1.5059,1.5129,1.5136,1.5142,1.5161,1.517,1.5071,1.5071,1.5071,1.5071,0,1.4772,1.4809,1.4839,1.4875,1.4898,1.4939,1.4948,1.4971,1.497,1.4979,1.5026,1.5047,1.508,1.5095,1.5094,1.515,1.5141,1.5129,1.5103,1.5152,1.5171,1.5179,1.5074,1.5073,1.5073,1.5072,0,0,1.485,1.4887,1.4898,1.4913,1.4943,1.4971,1.501,1.5043,1.5061,1.5087,1.5118,1.5165,1.5153,1.5172,1.5174,1.5199,1.5247,1.5183,1.5183,1.5191,1.5305,1.5312,1.5321,1.5242,1.5243,1.5245,1.5302,0,1.4912,1.4981,1.4986,1.5047,1.5079,1.5072,1.5105,1.5126,1.5136,1.5164,1.5174,1.5206,1.519,1.52,1.5225,1.5236,1.5269,1.5232,1.5267,1.5268,1.5257,1.5331,1.5339,1.5391,1.5309,1.5311,1.5311,0,1.4994,1.5022,1.5086,1.5109,1.5123,1.5153,1.5182,1.521,1.5234,1.5239,1.5259,1.5257,1.5294,1.5269,1.532,1.5294,1.5309,1.5317,1.5319,1.5319,1.5291,1.533,1.5409,1.5415,1.5324,1.5323,1.5322,0,1.5039,1.5093,1.5138,1.5151,1.5181,1.5201,1.5215,1.5237,1.5255,1.5281,1.5293,1.5323,1.5338,1.5361,1.5366,1.5348,1.5415,1.5391,1.5417,1.5417,1.5429,1.5428,1.5508,1.5445,1.5445,1.5445,1.5444,0,1.5107,1.5145,1.5158,1.5185,1.5227,1.5233,1.5274,1.5286,1.5305,1.5333,1.5329,1.5355,1.5362,1.5388,1.5393,1.5432,1.544,1.5443,1.5443,1.5441,1.544,1.5449,1.5444,1.5447,1.5446,1.5446,1.5445,0,1.5163,1.5174,1.5221,1.5245,1.5252,1.5282,1.5302,1.5327,1.5336,1.5371,1.5379,1.5393,1.5424,1.5432,1.5469,1.5472,1.5517,1.5515,1.5509,1.5507,1.5532,1.5528,1.5617,1.5628,1.5561,1.5562,1.5562,0,1.5204,1.5233,1.526,1.5278,1.5292,1.5323,1.5341,1.5348,1.5367,1.5395,1.5416,1.5447,1.5471,1.5521,1.5533,1.5561,1.5558,1.5587,1.5562,1.5558,1.5554,1.5551,1.5552,1.5591,1.5592,1.5592,1.5593,0,1.5273,1.5276,1.5304,1.5333,1.5356,1.5379,1.5401,1.5417,1.5426,1.5448,1.5479,1.5498,1.5536,1.5565,1.5593,1.5605,1.5599,1.5601,1.5608,1.5605,1.5598,1.5599,1.5518,1.5598,1.5598,1.5597,1.5597,1.5597,1.532,1.5344,1.5367,1.5397,1.5414,1.5435,1.5459,1.547,1.5497,1.5528,1.5531,1.5564,1.5585,1.5622,1.5635,1.566,1.5651,1.5662,1.5664,1.5666,1.5666,1.5597,1.5666,1.5666,1.5666,1.5666,1.5665,0,1.5386,1.54,1.5428,1.5458,1.5482,1.5476,1.55,1.5519,1.5549,1.557,1.5594,1.5629,1.5657,1.5671,1.5699,1.5716,1.5714,1.5723,1.572,1.5722,1.5675,1.5664,1.5724,1.5724,1.5724,1.5724,1.5724,1.5724,1.5423,1.5463,1.5468,1.5516,1.553,1.5563,1.5576,1.5595,1.561,1.565,1.5673,1.5683,1.57,1.5729,1.5754,1.5757,1.5766,1.5775,1.5777,1.5732,1.5726,1.572,1.571,1.5778,1.5778,1.5822,1.5822,1.5822]}]]